Regional Weather Roundup
Issued by NWS

Home | Current Version | Previous Version | Graphics & Text | Print | Product List | Glossary On
Versions: 1 2 3 4 5 6 7 8 9 10 11 12 13 14 15 16 17 18 19 20 21 22 23 24 25 26 27 28 29 30 31 32 33 34 35 36 37 38 39 40 41 42 43 44 45 46 47 48 49 50
334
ASUS45 KTFX 192210
RWRMT
MONTANA REGIONAL WEATHER ROUNDUP
NATIONAL WEATHER SERVICE GREAT FALLS MT
400 PM MDT THU APR 19 2018

NOTE: "FAIR" INDICATES FEW OR NO CLOUDS BELOW 12000 FEET WITH NO
SIGNIFICANT WEATHER AND/OR OBSTRUCTIONS TO VISIBILITY.

MTZ001>007-043-192300-
WEST OF THE DIVIDE

CITY           SKY/WX    TMP DP  RH WIND       PRES   REMARKS
KALISPELL      FAIR      60  24  25 NE7       30.06F
MISSOULA       FAIR      61  25  25 N12       30.03F
BUTTE          FAIR      56  16  20 W9        30.01F
MULLAN PASS    FAIR      49  21  33 VRB5      30.09S
ANACONDA         N/A     55  19  24 NE7       30.01F
DEER LODGE       N/A     55  21  26 MISG      30.04F
HAMILTON         N/A     59  19  21 MISG      30.01F
RONAN            N/A     57  25  28 VRB6      30.09F
$$

MTZ008-052>055-192300-
SOUTHWEST MONTANA

CITY           SKY/WX    TMP DP  RH WIND       PRES   REMARKS
BOZEMAN        FAIR      60  26  27 NE6       30.00F
DILLON         FAIR      56  22  26 N9G17     29.97F
ENNIS          PTSUNNY   55  25  30 NW17      30.01F
W YELLOWSTONE  FAIR      46  16  29 NE10      29.95F
THREE FORKS      N/A     59  25  27 W1        30.00F
$$

MTZ009-010-012-014-046-048-049-054-192300-
EAST SLOPES AND CENTRAL MONTANA

CITY           SKY/WX    TMP DP  RH WIND       PRES   REMARKS
CUT BANK       FAIR      55  29  36 E10       30.07F
GREAT FALLS    FAIR      57  26  30 CALM      30.05F
HELENA         PTSUNNY   58  22  24 CALM      30.02F
AUGUSTA        FAIR      50  23  34 CALM      30.07F
BOWMANS CRNR   FAIR      53  24  32 E5        30.05F
CHOTEAU          N/A     55  27  33 VRB5G15   30.09F
FAIRFIELD      FAIR      55  24  30 SE10      30.06F
POWER          FAIR      56  26  31 N3        30.06F
RAYNESFORD     FAIR      59  20  22 NE6       30.02F
ULM            FAIR      56  27  32 NE8       30.05F
WHITE SULPHUR    N/A     54  23  30 W7G14     30.01F
$$

MTZ011-013-016-021-045-047-050-051-192300-
NORTH CENTRAL MONTANA

CITY           SKY/WX    TMP DP  RH WIND       PRES   REMARKS
HAVRE          FAIR      59  39  47 E23       30.10F
LEWISTOWN      FAIR      59  27  29 E16G26    30.05F
N BAR RANCH    FAIR      57  25  28 SE14G25   30.09F
CHINOOK          N/A     55  36  47 MISG      30.13F
GEYSER         FAIR      60  24  25 E14G24    30.02F
GRASS RANGE    FAIR      58  31  36 E18G26    30.03F
STANFORD       FAIR      57  24  27 SE14      30.04F
$$

MTZ017>020-022>027-061-062-192300-
NORTHEAST MONTANA

CITY           SKY/WX    TMP DP  RH WIND       PRES   REMARKS
GLASGOW        FAIR      59  36  42 E24       30.17F
GLENDIVE       FAIR      61  24  24 SE13G23   30.19F
JORDAN           N/A     62  30  29 E21G26    30.12F
MALTA          SUNNY     57  41  54 E17G25    30.13F
SIDNEY         FAIR      58  33  39 E17       30.25F
WOLF POINT     FAIR      59  35  40 E18G28    30.22F
PLENTYWOOD       N/A     48  37  66 E13       30.31S
POPLAR           N/A     55  34  44 E14       30.24F
$$

MTZ028>42-056>058-192300-
SOUTHCENTRAL AND SOUTHEAST MONTANA

CITY           SKY/WX    TMP DP  RH WIND       PRES   REMARKS
BAKER          FAIR      58  28  32 SE21G30   30.19F
BILLINGS       PTSUNNY   62  29  28 E17G24    30.02F
LIVINGSTON     FAIR      59  28  30 E16G25    30.00F
MILES CITY     FAIR      63  30  28 SE20G26   30.10F
BIG TIMBER     SUNNY     57  23  26 E8G15     30.03F
FORSYTH          N/A     63  28  27 MISG      30.07S
HARLOWTON      FAIR      57  23  27 SE12G20   30.04F
LAUREL           N/A     63  25  23 E15G22    30.02S
$$

REGIONAL REPORTS...DAKOTAS

CITY           SKY/WX    TMP DP  RH WIND       PRES   REMARKS
WILLISTON      FAIR      54  35  48 E12       30.31F
MINOT          FAIR      48  35  60 S7        30.36F
DICKINSON      PTSUNNY   58  28  32 SE14G22   30.24F
BEACH          FAIR      57  21  24 SE14G22   30.25F
CROSBY         FAIR      50  34  53 SE12      30.34F
TIOGA          FAIR      45  41  87 E10       30.34F
WATFORD CITY   FAIR      54  30  40 SE10G17   30.29F
BISMARCK       FAIR      55  34  45 VRB7      30.33F
GRAND FORKS    FAIR      55  34  45 SW10      30.37F
FARGO          FAIR      56  31  38 W8        30.39F
BUFFALO SD       N/A     57  28  33 E21G28    30.13F
RAPID CITY     FAIR      58  32  37 E15G30    30.18F
$$

REGIONAL REPORTS...WYOMING/IDAHO/WASHINGTON

CITY           SKY/WX    TMP DP  RH WIND       PRES   REMARKS
GILLETTE       FAIR      58  28  32 SE26G36   30.06F
SHERIDAN       FAIR      61  25  25 SE20G29   30.00F
BUFFALO WY     FAIR      59  23  25 SE16      30.05F
CODY           FAIR      53  19  26 SE6       30.02F
YELLOWSTONE LA   N/A     42  16  34 VRB5      30.03F
IDAHO FALLS    PTSUNNY   61  19  19 NE13G23   29.87F
SALMON         FAIR      61  22  22 W3        29.95F
BOISE          FAIR      68  29  23 NW16G28   29.89F
SPOKANE        FAIR      60  27  28 NW8       30.11F
$$

REGIONAL REPORTS...ALBERTA

CITY           SKY/WX    TMP DP  RH WIND       PRES   REMARKS
CALGARY        MOSUNNY   48  25  40 S16       30.06F
CARDSTON         N/A     55  27  33 E6          N/A
EDMONTON       SUNNY     54  27  35 S20       30.05F
FORT MCMURRAY  SUNNY     57  23  26 SW18G25   29.98F
HIGH LEVEL     PTSUNNY   52  23  32 S3        29.75F
LETHBRIDGE     MOSUNNY   57  27  30 S8G20     30.07F
LLOYDMINSTER   MOSUNNY   52  37  58 SE14G20   30.14F
MEDICINE HAT   MOSUNNY   63  25  23 SE15G21   30.10F
MILK RIVER       N/A     55  27  33 S14G20      N/A
PEACE RIVER    PTSUNNY   45  25  45 SW15      29.94F
PINCHER CREEK  MOSUNNY   52  30  43 SE9       30.06F
$$

REGIONAL REPORTS...SASKATCHEWAN

CITY           SKY/WX    TMP DP  RH WIND       PRES   REMARKS
CORONACH         N/A     50  34  53 SE16        N/A
CYPRESS HILLS    N/A     46  27  46 SE14G21     N/A
ESTEVAN        PTSUNNY   52  25  35 E13       30.34F
MOOSE JAW        N/A     52  27  37 SE17G23     N/A
PRINCE ALBERT  MOSUNNY   43  28  56 S10       30.29F
REGINA         MOSUNNY   45  37  76 SE16      30.34F
ROCKGLEN         N/A     50  34  53 SE15        N/A
SASKATOON      MOSUNNY   55  23  28 S18G24    30.27F
SWIFT CURRENT  SUNNY     55  32  41 S15G24    30.19F
VAL MARIE        N/A     55  28  35 SE14G20     N/A
$$




USA.gov is the U.S. government's official web portal to all federal, state and local government web resources and services.